Cranbrook Airport
CYXC : now visible

Airfield :











YOU CAN JOIN US ON...

 
LOGIN :

Register | Disclaimer

   EN    FR    IT 

 









Legend :    VFR   Marginal VFR   IFR   Intensive IFR   Very Intensive IFR
Visi :
Ceiling :
>= 8 km
>= 3000ft
5 to 8 km
1000 to 3000 ft
1500m to 5 km
500 to 1000 ft
800 to 1500m
200 to 500 ft
< 800m
< 200 ft
Symbols :   Thunderstorms  Fog  Heavy snow  Heavy precipitations  Wind > 20 kt






- Airport Elevation : 3082 ft
- IATA code : YXC


CYXC - Cranbrook

CURRENT METAR :
  • 171800Z 22004KT 160V240 25SM FEW050 FEW080 SCT210 BKN250 M00/M03 A2986 RMK SC1AC1CI2CI1 SLP141

EXPIRED METARs :
  • 171700Z 15010KT 25SM FEW050 FEW080 BKN200 02/M03 A2987 RMK SC1AC1CI5 SH DIST SW SLP141
  • 171600Z 20004KT 25SM FEW050 FEW080 BKN220 00/M04 A2987 RMK SC1AC1CI5 SLP147

TAF TAF CYXC
Valid from the 17 at 13:00 until the 18 at 01:00 UTC


171240Z 1713/1801 17010KT P6SM FEW040 BKN200
TEMPO 1713/1801 BKN040 RMK NXT FCST BY 171900Z
CZVR FIR / North America



MET'MAP, your aeronautical weather chart ! - Copyright ORBIFLY December 2007 - Disclaimer

ORBIFLY MET'MAP TEAM :

Programming & Development : Alexandra Zaïnal
Concept & original design : Baudouin d'Aumeries
Assistance for programming : Marc-Olivier Méhu
Technical & hardware support : Manuel Goepfert

Contact : metmap@orbifly.com




SOURCES & CREDITS :

   NOAA       Earth
Advisory